AO-07 1 07530U 74089B 22160.38217247 -.00000034 00000-0 71498-4 0 9999 2 07530 101.9037 140.2267 0012634 58.2080 104.4111 12.53655292176454 UO-11 1 14781U 84021B 22160.42578130 .00000520 00000-0 69021-4 0 9996 2 14781 97.6169 148.2260 0008260 359.5680 0.5526 14.83664465 38855 LO-19 1 20442U 90005G 22160.35092783 .00000063 00000-0 39535-4 0 9992 2 20442 98.7933 125.0886 0011494 187.1921 172.9100 14.33061617691942 HUBBLE 1 20580U 90037B 22160.48857848 .00001377 00000-0 70556-4 0 9992 2 20580 28.4688 221.5798 0002323 312.8175 70.0799 15.10554103565018 MET-2/21 1 22782U 93055A 22160.61174522 .00000062 00000-0 42270-4 0 9999 2 22782 82.5500 20.4646 0022639 13.0614 15.4355 13.83855624453192 AO-27 1 22825U 93061C 22160.53898802 .00000039 00000-0 33059-4 0 9998 2 22825 98.8870 191.4093 0009558 77.0294 283.1954 14.30173244497296 IO-26 1 22826U 93061D 22160.49416441 .00000052 00000-0 37871-4 0 9990 2 22826 98.8814 191.2432 0010000 65.0827 295.1393 14.30518901497274 FO-29 1 24278U 96046B 22160.52067228 -.00000037 00000-0 13071-5 0 9999 2 24278 98.5162 185.2994 0349399 304.0009 52.8392 13.53115682274532 NOAA-15 1 25338U 98030A 22160.77251173 .00000135 00000-0 74895-4 0 9991 2 25338 98.6440 190.4084 0009565 325.6942 34.3619 14.26135722252172 GO-32 1 25397U 98043D 22160.27668470 .00000018 00000-0 27709-4 0 9999 2 25397 98.8174 110.7231 0002229 110.9223 249.2194 14.23756051242264 ISS 1 25544U 98067A 22161.05527844 .00006391 00000-0 12012-3 0 9995 2 25544 51.6454 11.9131 0004343 215.6843 304.8458 15.49937353344075 NO-44 1 26931U 01043C 22160.48265307 .00000053 00000-0 51905-4 0 9997 2 26931 67.0520 78.9717 0007738 264.7465 95.2753 14.30705916 80264 SO-50 1 27607U 02058C 22160.46250201 .00000298 00000-0 61611-4 0 9996 2 27607 64.5551 326.3548 0077983 295.9921 63.3164 14.76121611 47196 CO-55 1 27844U 03031E 22160.47800250 .00000164 00000-0 93059-4 0 9990 2 27844 98.6782 168.2851 0010959 121.5321 238.6928 14.22449963982772 CO-57 1 27848U 03031J 22160.43850102 .00000142 00000-0 83815-4 0 9996 2 27848 98.6828 168.7675 0010626 134.4529 225.7520 14.22007308982543 RS-22 1 27939U 03042A 22160.62405600 .00000410 00000-0 81293-4 0 9995 2 27939 98.1909 301.3475 0012057 228.3446 131.6724 14.67347452999896 NOAA-18 1 28654U 05018A 22160.76972538 .00000124 00000-0 90745-4 0 9993 2 28654 98.9491 231.2116 0014006 358.0050 2.1063 14.12739350878982 CO-58 1 28895U 05043F 22160.59240447 .00000573 00000-0 11743-3 0 9994 2 28895 98.1056 292.0924 0017176 162.0015 198.1799 14.64331508886492 Falconsat-3 1 30776U 07006E 22160.48274658 .00025676 00000-0 39999-3 0 9999 2 30776 35.4315 312.4721 0002888 11.0763 349.0032 15.52911558848340 CO-65 1 32785U 08021C 22160.36934442 .00001022 00000-0 11272-3 0 9993 2 32785 97.6569 131.4744 0010931 259.7914 100.2071 14.89564116765288 AAUSAT2 1 32788U 08021F 22160.41884168 .00002558 00000-0 22450-3 0 9996 2 32788 97.5319 146.0192 0012116 143.8149 216.3896 14.97410211767238 DO-64 1 32789U 08021G 22160.48400123 .00008488 00000-0 47545-3 0 9999 2 32789 97.3395 187.0713 0009723 4.2294 355.9018 15.13615026770720 CO-66 1 32791U 08021J 22160.86780668 .00001654 00000-0 16577-3 0 9998 2 32791 97.6110 137.4596 0011719 208.6779 151.3797 14.92628839766140 RS-30 1 32953U 08025A 22160.65234697 .00000021 00000-0 80971-4 0 9992 2 32953 82.5034 188.7844 0017917 277.9951 81.9096 12.43110797637364 PRISM 1 33493U 09002B 22160.53871116 .00002148 00000-0 17895-3 0 9994 2 33493 98.2285 146.6640 0014292 190.2873 169.8058 14.99747500727800 NOAA-19 1 33591U 09005A 22160.84093352 .00000113 00000-0 86348-4 0 9998 2 33591 99.1480 194.8177 0013510 205.4872 154.5635 14.12574185687377 SRMSAT 1 37841U 11058D 22160.55523117 .00000335 00000-0 38603-4 0 9993 2 37841 19.9731 302.6634 0011775 257.5880 174.3881 14.10755183550125 HRBE 1 37855U 11061F 22160.30038663 .00008474 00000-0 37394-3 0 9999 2 37855 101.7075 275.0662 0153743 86.9808 274.8988 15.12205018580476 RS-40 1 38735U 12041C 22160.44389606 .00000034 00000-0 17747-3 0 9991 2 38735 82.4759 270.4830 0017623 32.2493 327.9659 12.42586004447524 ZACUBE-1 1 39417U 13066B 22160.33451640 .00001298 00000-0 16389-3 0 9997 2 39417 97.6359 132.1987 0059512 71.7810 288.9870 14.82305501461925 Delfi-N3xt 1 39428U 13066N 22160.21746865 .00001502 00000-0 23869-3 0 9991 2 39428 97.8145 94.9292 0116172 304.8326 54.1997 14.69155580457321 GOMX-1 1 39430U 13066Q 22160.71141888 .00000860 00000-0 16099-3 0 9996 2 39430 97.8107 68.3531 0150714 69.4801 292.2518 14.60159388455160 LO-74 1 39440U 13066AA 22160.59695853 .00000815 00000-0 11694-3 0 9995 2 39440 97.7257 118.4853 0079351 155.8683 204.6278 14.76979452460328 AO-73 1 39444U 13066AE 22160.35713603 .00001614 00000-0 19727-3 0 9990 2 39444 97.6239 134.6244 0058270 60.3221 300.3778 14.83381485460320 SPROUT 1 39770U 14029E 22160.26089734 .00003081 00000-0 31877-3 0 9993 2 39770 97.9417 277.1492 0009826 111.5217 248.7053 14.90798457436444 DTUSAT-2 1 40030U 14033W 22160.25140227 .00001255 00000-0 13614-3 0 9993 2 40030 97.9376 92.9857 0013344 81.7778 278.4952 14.89919961432422 EO-80 1 40032U 14033Y 22160.62641310 .00001390 00000-0 15024-3 0 9992 2 40032 97.9381 93.3755 0013278 81.4370 278.8351 14.89891266432977 HODOYOSHI-1 1 40299U 14070B 22160.87626892 .00003288 00000-0 12708-3 0 9997 2 40299 97.2422 229.2264 0013059 157.6338 322.6622 15.26851539421904 FIREBIRD FU3 1 40377U 15003B 22160.05865516 .00012133 00000-0 36566-3 0 9996 2 40377 99.1025 23.0997 0102086 54.2850 306.7830 15.29456067407137 FIREBIRD FU4 1 40378U 15003C 22160.47725254 .00012365 00000-0 37143-3 0 9996 2 40378 99.1030 23.8198 0101967 52.5354 308.5101 15.29561791407213 GRIFEX 1 40379U 15003D 22160.56879614 .00008182 00000-0 29098-3 0 9999 2 40379 99.1135 9.9398 0117310 93.7696 267.6958 15.22982366406438 XW-2A 1 40903U 15049E 22160.86620889 .00015774 00000-0 25230-3 0 9992 2 40903 97.1790 219.3890 0011145 143.0013 333.4832 15.53156911378086 XW-2C 1 40906U 15049H 22160.88275318 .00003425 00000-0 16658-3 0 9994 2 40906 97.4928 164.3578 0014725 32.7714 18.2682 15.18996631371778 XW-2D 1 40907U 15049J 22160.85585858 .00004108 00000-0 19557-3 0 9995 2 40907 97.4916 164.3045 0014018 28.7555 91.0353 15.19634210371810 LILACSAT-2 1 40908U 15049K 22160.83863692 .00001797 00000-0 97498-4 0 9991 2 40908 97.5158 161.4981 0016649 47.8281 73.0736 15.15746953371333 XW-2E 1 40909U 15049L 22160.78411936 .00006358 00000-0 26975-3 0 9995 2 40909 97.4649 168.7410 0012385 12.0833 74.8816 15.23386965372246 XW-2F 1 40910U 15049M 22160.84691065 .00006333 00000-0 27285-3 0 9995 2 40910 97.4728 167.9364 0013144 12.8290 108.5033 15.22862628372020 XW-2B 1 40911U 15049N 22160.87974632 .00004011 00000-0 19162-3 0 9999 2 40911 97.4907 164.9327 0013900 30.0568 86.0996 15.19523022371706 DCBB 1 40912U 15049P 22160.85932138 .00007268 00000-0 28553-3 0 9994 2 40912 97.4365 172.2986 0011765 337.6381 106.8741 15.25933787372591 TW-1A 1 40928U 15051D 22160.91957242 .00032027 00000-0 40903-3 0 9998 2 40928 97.0387 183.6395 0009320 68.5638 51.7485 15.59152389377065 IO-86 1 40931U 15052B 22160.27922249 .00000795 00000-0 21463-4 0 9999 2 40931 5.9991 227.4572 0013270 49.6017 310.5261 14.76813192362136 ATHENOXAT-1 1 41168U 15077C 22160.34497929 .00008320 00000-0 33244-3 0 9990 2 41168 14.9928 150.5246 0009619 120.6166 275.5044 15.20804348359071 ChubuSat-2 1 41338U 16012B 22160.15546346 .00001451 00000-0 10326-3 0 9990 2 41338 31.0031 76.7289 0013193 70.0114 290.1942 15.01351744346234 ChubuSat-3 1 41339U 16012C 22160.74704189 .00001169 00000-0 81743-4 0 9995 2 41339 31.0119 69.8972 0013061 83.0277 277.1851 15.01433204346328 Horyu-4 1 41340U 16012D 22160.40443957 .00002410 00000-0 16708-3 0 9991 2 41340 31.0054 50.5282 0012998 120.3590 239.8333 15.03273127346519 e-st@r-II 1 41459U 16025D 22160.88502547 .00004678 00000-0 20715-3 0 9990 2 41459 98.1846 325.4777 0144405 295.1383 63.4925 15.13294576336357 AAUSAT4 1 41460U 16025E 22160.43828082 .00009145 00000-0 35729-3 0 9993 2 41460 98.1803 331.1285 0125638 272.8337 85.8766 15.19043931336723 LO-87 1 41557U 16033B 22160.81831013 .00008348 00000-0 25151-3 0 9991 2 41557 97.3873 258.5027 0011746 52.0571 45.7132 15.34517088336218 NuSat2 1 41558U 16033C 22160.79064010 .00007822 00000-0 22195-3 0 9995 2 41558 97.4067 264.1328 0010863 42.3288 57.7448 15.36440167336474 Lapan A3 1 41603U 16040E 22160.80750160 .00000863 00000-0 42247-4 0 9993 2 41603 97.2058 198.1682 0013047 180.3830 297.9317 15.20650095330872 Pratham 1 41783U 16059A 22160.56391600 .00000268 00000-0 60377-4 0 9998 2 41783 97.9136 202.4350 0033048 196.4824 163.5307 14.63349570304473 TY-1 1 41844U 16066D 22160.84481660 .00008364 00000-0 28756-3 0 9990 2 41844 97.3892 172.8841 0011357 322.8835 159.6149 15.30284241310447 CAS-2T 1 41847U 16066G 22160.62211479 .00000411 00000-0 72567-4 0 9993 2 41847 98.5512 225.3010 0362922 233.1976 123.5403 14.38570442293228 EO-88 1 42017U 17008BX 22160.15232315 .00010391 00000-0 31435-3 0 9996 2 42017 97.2693 226.3877 0003378 264.8244 95.2613 15.34376816295802 CAS-4B 1 42759U 17034B 22160.71365221 .00002521 00000-0 15762-3 0 9994 2 42759 43.0192 15.3617 0010007 246.5349 194.4380 15.11846465275185 CAS-4A 1 42761U 17034D 22160.75131944 .00002158 00000-0 13648-3 0 9991 2 42761 43.0190 13.9443 0010305 249.2781 199.5599 15.11936079275198 NIUSat 1 42766U 17036B 22160.92162115 .00006099 00000-0 23768-3 0 9993 2 42766 97.2026 199.0120 0013179 2.5283 357.6020 15.26234886275659 Aalto 1 1 42775U 17036L 22160.56233086 .00004670 00000-0 18663-3 0 9990 2 42775 97.1981 198.6027 0012180 3.5888 356.5436 15.25526870275578 URSA MAIOR 1 42776U 17036M 22160.54610331 .00005012 00000-0 19688-3 0 9990 2 42776 97.1996 199.3071 0011809 2.7283 357.4018 15.26067949275607 Max Valier Sat 1 42778U 17036P 22160.52505293 .00005942 00000-0 22746-3 0 9991 2 42778 97.2058 201.8987 0010450 5.7995 354.3364 15.26871782275695 Pegasus 1 42784U 17036V 22160.52221157 .00007607 00000-0 27468-3 0 9998 2 42784 97.1997 202.7112 0009716 6.9195 353.2177 15.28717464275802 NUDATSat 1 42787U 17036Y 22160.92531796 .00012434 00000-0 38728-3 0 9993 2 42787 97.2025 207.1368 0007754 354.3797 5.7362 15.33376916275947 SUCHAI 1 1 42788U 17036Z 22160.59265654 .00009073 00000-0 31022-3 0 9999 2 42788 97.2006 204.3886 0008698 2.2844 357.8436 15.30450867275983 SKCUBE 1 42789U 17036AA 22160.52009773 .00008159 00000-0 28553-3 0 9990 2 42789 97.2003 203.7952 0008874 3.6228 356.5076 15.29725380275861 VZLUSAT 1 1 42790U 17036AB 22160.08374167 .00012410 00000-0 38838-3 0 9997 2 42790 97.2031 206.2881 0007252 358.4642 1.6577 15.33230492275968 VENTA 1 1 42791U 17036AC 22160.35342417 .00007061 00000-0 25168-3 0 9999 2 42791 97.2004 203.5289 0008739 5.5978 354.5359 15.29175077275829 Robusta 1B 1 42792U 17036AD 22160.54376194 .00008638 00000-0 29762-3 0 9995 2 42792 97.2000 204.3737 0008416 4.2598 355.8714 15.30218288275912 D-SAT 1 42794U 17036AF 22160.43668817 .00001950 00000-0 16790-3 0 9998 2 42794 97.4510 166.2716 0124850 111.7781 249.6779 14.92585947270286 TechnoSat 1 42829U 17042E 22160.63845269 .00000638 00000-0 68206-4 0 9996 2 42829 97.4220 15.2333 0014997 38.9989 321.2309 14.91845044266929 QIKCOM-1 1 42983U 98067NF 22160.67415127 .00111639 16188-4 26798-3 0 9994 2 42983 51.6283 222.8453 0006579 340.3902 19.6852 15.96305391263696 AO-91 1 43017U 17073E 22160.67122802 .00001617 00000-0 12662-3 0 9997 2 43017 97.6763 55.1829 0247918 213.0624 145.4883 14.81352458245964 PICSAT 1 43132U 18004X 22160.65196822 .00008349 00000-0 27902-3 0 9993 2 43132 97.3721 237.0727 0007872 38.6059 321.5744 15.31236016245215 AO-92 1 43137U 18004AC 22160.17831515 .00006520 00000-0 23223-3 0 9991 2 43137 97.3687 235.4096 0008285 43.1628 317.0260 15.29243710245088 TianYi 2 1 43155U 18008A 22160.90434928 .00004476 00000-0 24075-3 0 9997 2 43155 97.3521 219.5437 0016964 165.5647 281.1889 15.15235843242134 Zhou Enlai 1 43156U 18008B 22160.85806054 .00004437 00000-0 24045-3 0 9999 2 43156 97.3564 219.3723 0014184 165.2030 311.6483 15.15009555242052 TianYi 6 1 43158U 18008D 22160.64403431 .00003894 00000-0 21766-3 0 9993 2 43158 97.3524 217.1617 0013162 166.0528 345.0287 15.13989131241927 S-Net D 1 43186U 18014G 22160.61266742 .00001498 00000-0 13209-3 0 9991 2 43186 97.6588 66.5020 0009587 332.6313 27.4403 14.97880484237742 S-Net B 1 43187U 18014H 22160.67959295 .00001503 00000-0 13255-3 0 9998 2 43187 97.6585 66.5196 0009591 332.3091 27.7620 14.97879120237759 S-Net A 1 43188U 18014J 22160.67986801 .00001515 00000-0 13353-3 0 9994 2 43188 97.6590 66.5826 0009587 332.4809 27.5905 14.97878491237753 S-Net C 1 43189U 18014K 22160.14614123 .00001496 00000-0 13195-3 0 9994 2 43189 97.6585 65.9851 0009628 334.3018 25.7724 14.97874977236223 FMN 1 1 43192U 18015A 22160.89471071 .00017994 00000-0 48262-3 0 9997 2 43192 97.5341 305.8012 0010859 63.2349 87.7988 15.37971433242287 Shaonian Xing 1 43199U 18015H 22160.88357610 .00011021 00000-0 33594-3 0 9992 2 43199 97.5120 301.0649 0013847 73.1660 77.9808 15.34043410242283 SurfSat 1 43614U 18070B 22160.92086765 .00029090 00000-0 43754-3 0 9994 2 43614 93.0312 95.5513 0014142 61.1338 299.1342 15.54637246209891 CP-7 DAVE 1 43615U 18070C 22160.53742869 .00025714 00000-0 40376-3 0 9992 2 43615 93.0301 95.2487 0014516 62.6513 297.6224 15.53457465209808 ELFIN-B 1 43616U 18070D 22160.39926292 .00058262 00000-0 56794-3 0 9996 2 43616 93.0201 96.3165 0012230 64.1476 296.1052 15.65950603210090 ELFIN-A 1 43617U 18070E 22160.09503140 .00069013 00000-0 61869-3 0 9992 2 43617 93.0272 97.5149 0011285 65.0656 295.1785 15.68014487210099 CubeBel-1 1 43666U 18083E 22160.77858553 .00006089 00000-0 26059-3 0 9992 2 43666 97.4204 189.5500 0012950 8.9603 108.8371 15.23104530200312 Changshagaoxin 1 43669U 18083H 22160.82759716 .00005551 00000-0 24916-3 0 9995 2 43669 97.4151 185.5998 0009470 10.8306 163.6904 15.21546061200147 Ten-Koh 1 43677U 18084G 22160.35969653 .00000789 00000-0 85457-4 0 9992 2 43677 97.9632 290.3368 0014552 300.5592 59.4190 14.91077851196475 PO-101 1 43678U 18084H 22160.87194181 .00000837 00000-0 87998-4 0 9992 2 43678 97.9694 294.0478 0008787 316.3824 43.6726 14.92161153196721 IRVINE 01 1 43693U 18088D 22160.39524033 .00024801 00000-0 67678-3 0 9992 2 43693 85.0279 316.3093 0013792 139.2296 220.9989 15.37203798198986 QO-100 1 43700U 18090A 22160.54588736 .00000159 00000-0 00000-0 0 9994 2 43700 0.0181 16.0107 0001354 72.8231 31.3761 1.00271073 12956 Reaktor Hello World 1 43743U 18096AA 22160.18024349 .00008855 00000-0 27233-3 0 9993 2 43743 97.3525 240.0823 0016633 91.4216 268.8932 15.33775866196695 MinXSS-2 1 43758U 18099A 22160.89742217 .00001206 00000-0 10871-3 0 9994 2 43758 97.6247 228.9972 0013679 292.9298 67.0480 14.97323448191977 AO-95 1 43770U 18099N 22160.63301191 .00001043 00000-0 96971-4 0 9997 2 43770 97.6209 227.1861 0012912 305.0478 54.9531 14.96398937191844 RANGE-B 1 43772U 18099Q 22160.43018314 .00001358 00000-0 12286-3 0 9994 2 43772 97.6323 228.6439 0012278 291.2253 68.7658 14.97014256191834 RANGE-A 1 43773U 18099R 22160.95430194 .00000687 00000-0 66218-4 0 9995 2 43773 97.6137 226.3936 0011807 290.5652 69.4302 14.96006975191873 MOVE-II 1 43780U 18099Y 22160.46566743 .00003227 00000-0 28039-3 0 9990 2 43780 97.6244 228.1239 0010933 299.6971 60.3163 14.97652487191869 SNUSat 2 1 43782U 18099AA 22160.61410401 .00001565 00000-0 14241-3 0 9991 2 43782 97.6217 227.6273 0010683 290.0244 69.9827 14.96573228191869 SnugLite 1 43784U 18099AC 22160.65282017 .00001685 00000-0 15210-3 0 9997 2 43784 97.6170 227.3080 0013231 296.3870 63.5993 14.96774636191891 ITASat 1 1 43786U 18099AE 22160.62706709 .00000817 00000-0 76736-4 0 9992 2 43786 97.6239 228.0946 0013431 297.5098 62.4758 14.96553032191886 EAGLET 1 1 43790U 18099AJ 22160.65694977 .00001199 00000-0 10977-3 0 9991 2 43790 97.6225 228.6542 0011679 300.3418 59.6649 14.96731046191627 ESEO 1 43792U 18099AL 22160.65549547 .00000746 00000-0 71177-4 0 9992 2 43792 97.6180 227.8829 0011723 298.1485 61.8551 14.96175557191666 CSIM 1 43793U 18099AM 22160.64305249 .00002331 00000-0 20037-3 0 9991 2 43793 97.6244 229.1791 0011376 288.9945 71.0045 14.98332984191711 Astrocast 0.1 1 43798U 18099AS 22160.58222907 .00002062 00000-0 18133-3 0 9993 2 43798 97.6231 229.0277 0010889 273.7260 86.2717 14.97566174191937 JO-97 1 43803U 18099AX 22160.64741501 .00001568 00000-0 14092-3 0 9993 2 43803 97.6192 227.8674 0013373 294.9841 64.9992 14.97032519191904 Suomi 100 1 43804U 18099AY 22160.66474066 .00002055 00000-0 18359-3 0 9997 2 43804 97.6195 227.8079 0013079 295.7077 64.2794 14.96941804191919 Al Farabi 2 1 43805U 18099AZ 22160.78842391 .00002069 00000-0 18224-3 0 9997 2 43805 97.6195 228.4028 0013347 292.6733 67.3076 14.97487110191951 CHOMPTT 1 43855U 18104G 22160.77806262 .00005394 00000-0 19883-3 0 9991 2 43855 85.0369 56.2678 0012739 266.3748 93.6040 15.27480585193550 ISAT 1 43879U 18111D 22160.51504893 .00001292 00000-0 11439-3 0 9994 2 43879 97.6664 66.2698 0012791 354.0950 6.0119 14.97954092186466 UWE-4 1 43880U 18111E 22160.18525267 .00001204 00000-0 10648-3 0 9991 2 43880 97.6693 66.6412 0012116 355.6607 4.4508 14.98111860188460 Sparrow 1 43881U 18111F 22160.20338482 .00001915 00000-0 16585-3 0 9991 2 43881 97.6694 66.8811 0011628 352.0630 8.0407 14.98252377188479 Lume 1 1 43908U 18111AJ 22160.59842728 .00006425 00000-0 22082-3 0 9996 2 43908 97.1931 48.6534 0020723 101.0986 259.2586 15.30226175192196 FO-99 1 43937U 19003F 22160.52009951 .00008132 00000-0 27644-3 0 9991 2 43937 97.1311 194.1808 0021212 176.7109 183.4276 15.30488065188761 MYSat 1 1 44045U 18092F 22160.87826302 .00033943 00000-0 51871-3 0 9991 2 44045 51.6312 110.4672 0011072 72.3444 287.8755 15.54016831186699 AstroCast 0.2 1 44083U 19018F 22160.43421492 .00010648 00000-0 41046-3 0 9995 2 44083 97.3229 219.4533 0012294 149.4179 210.7779 15.26433195177268 AISTechSat 3 1 44103U 19018AB 22160.62766650 .00005997 00000-0 22579-3 0 9998 2 44103 97.3089 220.0302 0013170 156.9112 203.2722 15.27397756177450 AISat 1 1 44104U 19018AC 22160.47953816 .00006121 00000-0 17290-3 0 9998 2 44104 97.3955 243.5840 0053242 160.3558 199.9753 15.35295717178377 Prox-1 1 44339U 19036A 22160.23496769 .00001938 00000-0 39267-3 0 9990 2 44339 23.9995 245.3652 0010907 122.6529 237.5015 14.55014703157155 Oculus-ASR 1 44348U 19036K 22160.92693793 .00050551 -58573-5 48173-3 0 9997 2 44348 28.5044 244.1634 0242815 226.7795 131.2289 15.35835001163380 Armadillo 1 44352U 19036P 22160.36533312 .00156204 -32966-7 76710-3 0 9990 2 44352 28.5215 174.1344 0134189 337.4495 22.0256 15.68569684163980 NO-104 1 44354U 19036R 22160.55561301 .00056903 -57584-5 51491-3 0 9997 2 44354 28.5261 233.0766 0233398 241.4333 116.2592 15.38743476163454 Move-IIb 1 44398U 19038N 22160.84579406 .00006341 00000-0 30991-3 0 9992 2 44398 97.6367 130.1225 0022851 149.6164 210.6401 15.18368977161884 SONATE 1 44400U 19038Q 22160.99138384 .00002427 00000-0 13442-3 0 9991 2 44400 97.6420 129.4614 0024435 155.0409 205.2011 15.14557025161803 BeeSat 9 1 44412U 19038AC 22160.86448618 .00005417 00000-0 27831-3 0 9993 2 44412 97.6345 130.0959 0021229 155.3563 204.8689 15.16724884161542 JAISAT-1 1 44419U 19038F 22160.39092963 .00005284 00000-0 26806-3 0 9999 2 44419 97.6349 130.4502 0020245 154.0059 206.2195 15.17195632161838 LightSail-2 1 44420U 19036AC 22160.75626760 .00033493 00000-0 44260-2 0 9993 2 44420 24.0025 182.4403 0010363 204.0079 155.9935 14.78555591156061 Taurus 1 1 44530U 19059C 22160.53888013 .00001418 00000-0 40141-3 0 9994 2 44530 98.5464 258.9735 0014977 140.3476 219.8816 14.47041460144708 Duchifat 3 1 44854U 19089C 22160.35052694 .00001714 00000-0 13775-3 0 9996 2 44854 36.9651 148.3796 0007150 162.5228 337.8198 15.01021528136716 OPS-SAT 1 44878U 19092F 22160.49270780 .00004230 00000-0 19965-3 0 9992 2 44878 97.4802 344.5127 0012492 15.1057 345.0548 15.19933389136983 TO-108 1 44881U 19093C 22160.94764452 .00000310 00000-0 46053-4 0 9995 2 44881 97.8920 240.2633 0014262 206.0807 153.9679 14.81718691133665 FloripaSat 1 1 44885U 19093G 22160.65356356 .00001055 00000-0 13585-3 0 9997 2 44885 97.8958 241.2321 0013832 213.1121 146.9230 14.83110039133697 RS-44 1 44909U 19096E 22160.45088444 -.00000002 00000-0 -47930-4 0 9990 2 44909 82.5223 235.5904 0216863 338.7416 20.4776 12.79713286114486 Phoenix 1 45258U 98067RB 22160.39148679 .01493050 11839-4 76823-3 0 9999 2 45258 51.6224 313.4354 0012872 297.8033 62.1680 16.19479189131194 BY70-2 1 45857U 20042B 22160.92051195 .00004156 00000-0 55948-3 0 9990 2 45857 97.9538 237.8314 0012136 136.9449 223.2749 14.79701166104342 UPMSat 2 1 46276U 20061E 22160.92505727 .00002633 00000-0 13227-3 0 9994 2 46276 97.3919 231.9202 0002028 144.1817 215.9554 15.18130997 97733 AmicalSat 1 46287U 20061R 22160.60734389 .00003754 00000-0 21860-3 0 9996 2 46287 97.4464 230.5334 0001191 335.0026 25.1147 15.12611079 97283 SALSAT 1 46495U 20068K 22160.58113847 .00001954 00000-0 14382-3 0 9992 2 46495 97.7298 101.8785 0015301 307.6328 52.3509 15.04480680 93003 BY70-3 1 46839U 20079N 22160.91744604 .00014430 00000-0 34395-3 0 9993 2 46839 97.1973 233.1105 0004794 18.1506 99.1517 15.41666221 89089 SPOC 1 46921U 98067RR 22157.98368403 .00332605 55994-4 74277-3 0 9995 2 46921 51.6261 342.5980 0007693 268.4421 91.5706 15.97235128 90345 Neutron-1 1 46923U 98067RT 22159.90592023 .00346591 60667-4 72887-3 0 9995 2 46923 51.6257 332.9405 0008416 280.3872 79.6189 15.98293623 90677 CAPE 3 1 47309U 21002A 22160.21883585 .00005660 00000-0 23760-3 0 9997 2 47309 60.6845 35.5276 0018855 324.3094 35.6732 15.24621378 77193 AO-109 1 47311U 21002C 22160.20857980 .00005034 00000-0 20956-3 0 9998 2 47311 60.6865 33.2815 0014662 326.0875 33.9275 15.25168618 77209 MiTEE 1 1 47314U 21002F 22160.61358989 .00010665 00000-0 37435-3 0 9997 2 47314 60.6845 25.4312 0011900 312.9751 47.0341 15.29886250 77397 ExoCube 2 1 47319U 21002L 22160.66397780 .00005002 00000-0 21080-3 0 9997 2 47319 60.6849 32.6086 0016189 328.5869 31.4251 15.24741193 77221 UVSQ-SAT 1 47438U 21006AB 22160.62169685 .00003632 00000-0 19451-3 0 9996 2 47438 97.4377 219.7928 0010317 305.9899 54.0376 15.15605554 76092 YUSAT 1 1 47439U 21006AC 22160.59408862 .00004412 00000-0 23277-3 0 9994 2 47439 97.4383 219.8549 0010051 305.8115 54.2183 15.16019376 76095 SOMP 2b 1 47445U 21006AJ 22160.75040294 .00003354 00000-0 18146-3 0 9993 2 47445 97.4349 219.5916 0010031 310.5834 49.4525 15.15299143 76107 IDEASSat 1 47458U 21006AX 22160.40131232 .00003292 00000-0 17904-3 0 9994 2 47458 97.4437 219.7389 0009220 310.1407 49.9017 15.15131071 76044 RSP-01 1 47925U 98067SB 22159.97733955 .03925807 12084-4 94924-3 0 9998 2 47925 51.6203 339.3535 0014703 285.6985 74.2415 16.28293158 70538 Tsuru 1 47927U 98067SD 22159.81623494 .00236740 31679-4 75946-3 0 9991 2 47927 51.6314 346.6590 0007343 259.9239 100.0938 15.90509770 70427 Maya-2 1 47929U 98067SF 22157.68655879 .00222475 00000-0 74802-3 0 9998 2 47929 51.6309 357.9453 0006479 245.9720 114.0607 15.88886493 70048 GuaraniSat-1 1 47931U 98067SH 22160.24048461 .00246059 33443-4 77586-3 0 9997 2 47931 51.6296 344.2510 0007491 264.8075 95.2076 15.90833830 70496 CubeSX-Sirius-HSE 1 47951U 21022V 22160.92827343 .00002881 00000-0 19348-3 0 9999 2 47951 97.5315 60.6052 0021680 167.6349 256.3179 15.07405112 66865 CubeSX-HSE 1 47952U 21022W 22160.91523446 .00002371 00000-0 15976-3 0 9993 2 47952 97.5311 60.6127 0021478 166.7035 253.9866 15.07459268 66869 KSU-Cubesat 1 47954U 21022Y 22160.67049227 .00003325 00000-0 22103-3 0 9998 2 47954 97.5321 60.4692 0020942 167.1740 193.0025 15.07682233 66557 GRBAlpha 1 47959U 21022AD 22160.71942853 .00002342 00000-0 15778-3 0 9993 2 47959 97.5317 60.4573 0021295 167.5785 280.6393 15.07479826 65653 Orbicraft-Zorkiy 1 47960U 21022AE 22160.88945425 .00001923 00000-0 12988-3 0 9995 2 47960 97.5326 60.7498 0020730 166.8162 256.3873 15.07612817 66370 STECCO 1 47962U 21022AG 22160.78935019 .00004068 00000-0 25668-3 0 9996 2 47962 97.5299 61.3037 0016402 159.6240 288.6330 15.09547853 65717 DO-111 1 47963U 21022AH 22160.47785992 .00010211 00000-0 57581-3 0 9992 2 47963 97.5330 61.9307 0017919 152.7944 207.4230 15.13232282 65742 MO-110 1 47964U 21022AJ 22160.15678197 .00004041 00000-0 25225-3 0 9990 2 47964 97.5311 60.9278 0019139 158.9405 201.2616 15.09907158 65638 FEES 1 48082U 21022AL 22160.48849978 .00005603 00000-0 34418-3 0 9994 2 48082 97.5320 61.1596 0015556 153.0806 207.1234 15.10381225 65382 RamSat 1 48850U 98067SL 22160.57852212 .00052105 00000-0 43870-3 0 9996 2 48850 51.6377 357.8374 0000555 117.8381 242.2673 15.69312479 56090 TUBIN 1 48900U 21059X 22160.70997392 .00002398 00000-0 13613-3 0 9994 2 48900 97.5522 290.0714 0011198 126.6575 340.3354 15.13861027 52742 IT-SPINS 1 49017U 21013G 22160.13873511 .00006312 00000-0 25160-3 0 9997 2 49017 51.5960 79.4844 0009440 52.4836 307.6999 15.26438067 52518 LEDSAT 1 49069U 21073D 22160.68923198 .00002786 00000-0 18071-3 0 9991 2 49069 97.5241 233.7318 0026001 323.5228 36.4228 15.08634196 44667 CUTE 1 49263U 21088D 22160.47354243 .00003677 00000-0 27619-3 0 9997 2 49263 97.5881 228.5505 0021090 91.9382 268.4259 15.03043106 38229 Binar-1 1 49272U 98067SR 22160.84771419 .00062295 00000-0 52928-3 0 9999 2 49272 51.6360 0.3576 0004182 247.2559 112.7996 15.69009151 38471 Maya-3 1 49273U 98067SS 22158.82026768 .00131836 00000-0 77880-3 0 9997 2 49273 51.6335 7.0445 0005857 239.6884 120.3537 15.77194662 38207 Maya-4 1 49274U 98067ST 22158.08056502 .00115345 00000-0 70688-3 0 9991 2 49274 51.6358 11.1040 0005320 229.2011 130.8528 15.76427463 38081 CUAVA-1 1 49275U 98067SU 22160.61450297 .00086065 00000-0 60617-3 0 9990 2 49275 51.6376 359.3859 0004213 254.5535 173.3805 15.73351871 38412 TeikyoSat 4 1 49396U 21102B 22160.95619805 .00000565 00000-0 49258-4 0 9999 2 49396 97.5257 219.2630 0014192 291.6950 68.2763 15.00600676 31928 Z-Sat 1 49399U 21102E 22160.90580417 .00001491 00000-0 11613-3 0 9995 2 49399 97.5387 219.8942 0022304 253.2044 106.6734 15.02544726 31952 KOSEN 1 1 49402U 21102H 22160.44088406 .00001913 00000-0 14381-3 0 9994 2 49402 97.5307 219.5568 0021187 246.1707 113.7299 15.03576780 31901 HO-113 1 50466U 21131B 22160.93819436 .00000060 00000-0 34301-4 0 9994 2 50466 98.5804 238.1954 0005228 157.8330 202.3084 14.38497444 23836 Tevel 1 50999U 22002R 22160.93782191 .00004879 00000-0 26600-3 0 9994 2 50999 97.4790 228.1272 0012802 88.6805 86.8917 15.14779577 22288 Grizu-263a 1 51025U 22002AT 22160.62136213 .00008517 00000-0 43867-3 0 9996 2 51025 97.4980 228.3526 0014408 94.7306 265.5573 15.16554774 22255 NO-116 1 51031U 22002AZ 22160.45382365 .00006692 00000-0 35378-3 0 9995 2 51031 97.4935 228.0287 0014710 93.9647 266.3268 15.15712038 22223 IRIS-A 1 51044U 22002BN 22160.46848000 .00003163 00000-0 18068-3 0 9990 2 51044 97.4825 227.4921 0010922 93.8525 266.3955 15.13389850 22209 DELFI-PQ 1 51074U 22002CU 22160.45310895 .00007035 00000-0 35616-3 0 9998 2 51074 97.5063 228.5792 0015529 121.2878 238.9878 15.17210245 22248 SO-115 1 51080U 22002DA 22160.15675905 .00005149 00000-0 26750-3 0 9991 2 51080 97.5075 228.2333 0015241 121.6594 238.6128 15.16439065 22197 SO-114 1 51081U 22002DB 22160.42127692 .00005211 00000-0 27059-3 0 9990 2 51081 97.5066 228.4781 0015578 120.7920 239.4848 15.16443662 22234 OreSat0 1 52017U 22026K 22160.43504568 .00004101 00000-0 22184-3 0 9999 2 52017 97.5019 160.3847 0025556 304.3391 55.5423 15.14948816 12973 Foresail-1 1 52766U 22057AL 22160.82682366 .00002650 00000-0 15271-3 0 9996 2 52766 97.5210 275.6606 0014127 174.0332 186.1069 15.13190361 2282 /EX